DW1174 Weather Reports


time (UTC)temp
F
wind
direction
speed
knots
gust
knots
rain 1hr
in
rain 24hr
in
rain mn
in
humidity
%
barometer
mb
20260508035952 45 294 0.0 0.0 0.00 0.00 0.00 74 1010.3
20260508035201 45 295 0.0 0.0 0.00 0.00 0.00 74 1010.3
20260508034625 45 295 0.0 0.0 0.00 0.00 0.00 75 1010.3
20260508034055 45 295 0.0 0.0 0.00 0.00 0.00 75 1010.3
20260508033523 45 295 0.0 0.0 0.00 0.00 0.00 74 1010.3
20260508033007 44 295 0.0 0.0 0.00 0.00 0.00 74 1010.2
20260508032709 44 295 0.0 0.0 0.00 0.00 0.00 76 1010.1
20260508031911 44 296 0.0 0.0 0.00 0.00 0.00 76 1010.0
20260508031356 44 296 0.0 0.0 0.00 0.00 0.00 76 1010.1
20260508030818 43 296 0.0 0.0 0.00 0.00 0.00 79 1010.1
20260508030243 43 296 0.0 0.0 0.00 0.00 0.00 81 1010.0
20260508025737 43 296 0.0 0.0 0.00 0.00 0.00 81 1010.1
20260508025235 42 296 0.0 0.0 0.00 0.00 0.00 81 1010.1
20260508024657 42 296 0.0 0.0 0.00 0.00 0.00 81 1010.1
20260508024134 42 296 0.0 0.0 0.00 0.00 0.00 81 1010.2
20260508023553 42 296 0.0 0.0 0.00 0.00 0.00 81 1010.2
20260508023045 43 296 0.0 0.0 0.00 0.00 0.00 81 1010.2
20260508022547 43 296 0.0 0.0 0.00 0.00 0.00 80 1010.1
20260508022233 43 296 0.0 0.0 0.00 0.00 0.00 79 1010.2
20260508021453 43 296 0.0 0.0 0.00 0.00 0.00 78 1010.3
20260508020957 44 296 0.0 0.0 0.00 0.00 0.00 77 1010.1
20260508020435 44 296 0.0 0.0 0.00 0.00 0.00 76 1010.1
20260508020132 44 296 0.0 0.0 0.00 0.00 0.00 75 1010.1
20260508015329 45 296 0.0 0.0 0.00 0.00 0.00 74 1010.1
20260508014803 45 296 0.0 0.0 0.00 0.00 0.00 72 1010.1
20260508014305 46 296 0.0 0.0 0.00 0.00 0.00 71 1010.1
20260508013747 46 296 0.0 0.0 0.00 0.00 0.00 70 1010.2
20260508013243 47 296 0.0 0.0 0.00 0.00 0.00 68 1010.1
20260508012922 47 296 0.0 0.0 0.00 0.00 0.00 68 1010.1
20260508012137 47 296 0.0 0.0 0.00 0.00 0.00 67 1010.2
20260508011858 48 296 0.0 0.0 0.00 0.00 0.00 66 1010.2
20260508011320 48 296 0.0 0.0 0.00 0.00 0.00 66 1010.2
20260508010459 48 296 0.0 0.0 0.00 0.00 0.00 64 1010.2
20260508005935 49 296 0.0 0.0 0.00 0.00 0.00 64 1010.3
20260508005435 49 296 0.0 0.0 0.00 0.00 0.00 63 1010.3
20260508004859 49 296 0.0 0.0 0.00 0.00 0.00 62 1010.3
20260508004621 49 296 0.0 0.0 0.00 0.00 0.00 61 1010.2
20260508003816 50 296 0.0 0.0 0.00 0.00 0.00 60 1010.2
20260508003253 50 296 0.0 0.9 0.00 0.00 0.00 60 1010.3
20260508002745 50 296 0.0 0.9 0.00 0.00 0.00 59 1010.2
20260508002231 51 273 0.0 0.0 0.00 0.00 0.00 58 1010.3
20260508001707 51 274 0.0 2.6 0.00 0.00 0.00 57 1010.3
20260508001200 51 273 0.0 6.1 0.00 0.00 0.00 56 1010.3
20260508001006 51 274 0.0 6.1 0.00 0.00 0.00 55 1010.3
20260507235625 51 242 0.9 2.6 0.00 0.00 0.00 54 1010.0
20260507235106 51 242 0.9 2.6 0.00 0.00 0.00 53 1010.0
20260507234608 52 293 0.9 5.2 0.00 0.00 0.00 53 1010.0
20260507234036 52 355 0.9 5.2 0.00 0.00 0.00 54 1010.1
20260507233529 52 299 0.9 4.3 0.00 0.00 0.00 53 1010.1
20260507233026 52 244 0.9 3.5 0.00 0.00 0.00 53 1010.1
20260507232524 52 237 0.9 2.6 0.00 0.00 0.00 53 1010.1
20260507232007 53 335 0.9 6.1 0.00 0.00 0.00 52 1010.2
20260507231512 53 296 0.9 6.1 0.00 0.00 0.00 52 1010.1
20260507231002 53 304 0.9 4.3 0.00 0.00 0.00 52 1010.2
20260507230503 53 294 2.6 9.6 0.00 0.00 0.00 51 1010.2
20260507225933 53 192 2.6 9.6 0.00 0.00 0.00 51 1010.2
20260507225654 53 293 1.7 7.8 0.00 0.00 0.00 52 1010.3
20260507225122 53 255 0.9 7.8 0.00 0.00 0.00 53 1010.2
20260507224403 53 229 0.9 5.2 0.00 0.00 0.00 53 1010.3
20260507223832 53 294 0.9 5.2 0.00 0.00 0.00 54 1010.3
20260507223303 53 258 1.7 4.3 0.00 0.00 0.00 53 1010.3
20260507222756 53 341 2.6 6.1 0.00 0.00 0.00 52 1010.3
20260507222247 53 286 1.7 7.8 0.00 0.00 0.00 53 1010.2
20260507221748 53 261 0.9 7.8 0.00 0.00 0.00 53 1010.2
20260507221219 53 254 1.7 9.6 0.00 0.00 0.00 56 1010.3
20260507220943 53 234 2.6 9.6 0.00 0.00 0.00 54 1010.2
20260507220139 54 208 1.7 5.2 0.00 0.00 0.00 53 1010.3
20260507215620 54 257 1.7 9.6 0.00 0.00 0.00 55 1010.4
20260507215109 54 255 2.6 9.6 0.00 0.00 0.00 53 1010.2
20260507214559 54 248 1.7 7.8 0.00 0.00 0.00 53 1010.3
20260507214056 53 250 2.6 7.8 0.00 0.00 0.00 54 1010.1
20260507213746 53 17 2.6 9.6 0.00 0.00 0.00 53 1010.0
20260507213001 54 334 2.6 7.0 0.00 0.00 0.00 52 1010.1
20260507212431 54 313 1.7 6.1 0.00 0.00 0.00 54 1010.0
20260507212116 53 309 2.6 6.1 0.00 0.00 0.00 54 1009.8
20260507211403 53 304 1.7 6.1 0.00 0.00 0.00 56 1009.9
20260507210836 52 322 0.9 4.3 0.00 0.00 0.00 57 1009.8
20260507210338 52 286 0.9 5.2 0.00 0.00 0.00 57 1009.8
20260507210043 52 325 0.9 5.2 0.00 0.00 0.00 58 1009.8
20260507205234 52 355 0.9 7.8 0.00 0.00 0.00 57 1009.8
20260507204727 53 252 0.9 4.3 0.00 0.00 0.00 58 1010.0
20260507204230 53 266 0.9 3.5 0.00 0.00 0.00 57 1009.9
20260507203703 53 321 0.9 2.6 0.00 0.00 0.00 59 1009.8
20260507203207 53 292 2.6 6.1 0.00 0.00 0.00 57 1009.8
20260507202619 54 296 1.7 7.0 0.00 0.00 0.00 54 1010.0
20260507202110 54 309 1.7 7.0 0.00 0.00 0.00 55 1010.0
20260507201604 54 330 1.7 7.0 0.00 0.00 0.00 54 1009.9
20260507201105 54 304 1.7 4.3 0.00 0.00 0.00 53 1009.8
20260507200603 54 319 0.9 6.1 0.00 0.00 0.00 54 1010.0
20260507200303 54 278 1.7 11.3 0.00 0.00 0.00 53 1010.0
20260507195526 54 180 2.6 11.3 0.00 0.00 0.00 54 1010.0
20260507195030 53 325 1.7 5.2 0.00 0.00 0.00 52 1010.0
20260507194520 54 315 0.9 5.2 0.00 0.00 0.00 52 1010.2
20260507194018 54 300 0.9 4.3 0.00 0.00 0.00 51 1010.2
20260507193510 53 292 1.7 4.3 0.00 0.00 0.00 50 1010.1
20260507193009 54 340 1.7 4.3 0.00 0.00 0.00 49 1010.2
20260507192948 54 272 1.7 5.2 0.00 0.00 0.00 48 1010.3
20260507192213 54 348 2.6 7.8 0.00 0.00 0.00 48 1010.4
20260507191434 54 268 2.6 8.7 0.00 0.00 0.00 47 1010.4
20260507190904 54 300 2.6 6.1 0.00 0.00 0.00 47 1010.4
20260507190351 55 302 1.7 6.1 0.00 0.00 0.00 48 1010.4
20260507185855 55 5 2.6 5.2 0.00 0.00 0.00 47 1010.4
20260507185318 55 15 1.7 5.2 0.00 0.00 0.00 47 1010.4
20260507184756 55 309 1.7 4.3 0.00 0.00 0.00 47 1010.5
20260507184216 55 313 1.7 7.8 0.00 0.00 0.00 47 1010.5
20260507183657 54 321 1.7 7.8 0.00 0.00 0.00 48 1010.5
20260507183200 54 284 2.6 6.1 0.00 0.00 0.00 46 1010.5
20260507182639 55 268 2.6 6.1 0.00 0.00 0.00 46 1010.6
20260507182122 55 287 2.6 14.8 0.00 0.00 0.00 46 1010.6
20260507181622 55 255 2.6 14.8 0.00 0.00 0.00 48 1010.6
20260507181048 55 207 1.7 9.6 0.00 0.00 0.00 50 1010.6
20260507180544 55 263 2.6 9.6 0.00 0.00 0.00 49 1010.5
20260507180048 55 315 2.6 6.1 0.00 0.00 0.00 49 1010.6
20260507175535 55 20 2.6 5.2 0.00 0.00 0.00 49 1010.5
20260507175036 55 296 1.7 10.4 0.00 0.00 0.00 49 1010.5
20260507174508 55 284 1.7 10.4 0.00 0.00 0.00 49 1010.7
20260507173951 55 250 1.7 7.8 0.00 0.00 0.00 49 1010.6
20260507173420 55 308 1.7 9.6 0.00 0.00 0.00 50 1010.8
20260507173336 55 39 1.7 9.6 0.00 0.00 0.00 48 1010.8
20260507172551 55 266 2.6 8.7 0.00 0.00 0.00 52 1010.7
20260507171815 54 278 3.5 8.7 0.00 0.00 0.00 51 1010.8
20260507171245 55 310 2.6 9.6 0.00 0.00 0.00 50 1010.6
20260507170714 55 336 2.6 9.6 0.00 0.00 0.00 48 1010.6
20260507170206 55 289 1.7 5.2 0.00 0.00 0.00 49 1010.6
20260507165704 56 317 1.7 3.5 0.00 0.00 0.00 48 1010.6
20260507165136 55 300 1.7 5.2 0.00 0.00 0.00 50 1010.6
20260507164636 55 298 1.7 5.2 0.00 0.00 0.00 50 1010.8
20260507164136 56 344 1.7 6.1 0.00 0.00 0.00 51 1010.6
20260507163606 56 311 1.7 6.1 0.00 0.00 0.00 49 1010.8
20260507163030 56 231 1.7 4.3 0.00 0.00 0.00 51 1010.7
20260507162502 55 220 1.7 9.6 0.00 0.00 0.00 50 1010.6
20260507161958 55 326 1.7 9.6 0.00 0.00 0.00 49 1010.6
20260507161458 55 325 1.7 9.6 0.00 0.00 0.00 52 1010.5
20260507160956 56 306 1.7 7.0 0.00 0.00 0.00 52 1010.7
20260507160413 56 276 0.9 4.3 0.00 0.00 0.00 54 1010.7
20260507155856 56 274 0.9 4.3 0.00 0.00 0.00 52 1010.8
20260507155346 56 251 0.9 3.5 0.00 0.00 0.00 55 1010.8
20260507154821 55 245 0.9 3.5 0.00 0.00 0.00 52 1010.7
20260507154304 55 246 0.9 2.6 0.00 0.00 0.00 57 1010.8
20260507153736 54 242 0.9 3.5 0.00 0.00 0.00 57 1010.5
20260507153139 53 238 1.7 4.3 0.00 0.00 0.00 58 1010.7
20260507152642 53 332 0.9 4.3 0.00 0.00 0.00 59 1010.7
20260507152108 53 303 0.9 4.3 0.00 0.00 0.00 57 1010.8
20260507151559 53 303 0.9 5.2 0.00 0.00 0.00 56 1010.8
20260507151048 54 236 0.9 5.2 0.00 0.00 0.00 57 1010.8
20260507150553 54 315 0.9 3.5 0.00 0.00 0.00 56 1010.8
20260507150239 54 263 0.9 3.5 0.00 0.00 0.00 59 1010.7
20260507145500 53 277 0.9 3.5 0.00 0.00 0.00 60 1010.6
20260507144946 53 277 0.0 3.5 0.00 0.00 0.00 61 1010.6
20260507144418 53 315 0.9 4.3 0.00 0.00 0.00 61 1010.8
20260507143836 53 315 0.9 4.3 0.00 0.00 0.00 62 1010.7
20260507143314 53 302 0.0 3.5 0.00 0.00 0.00 64 1010.7
20260507142806 53 299 0.0 3.5 0.00 0.00 0.00 64 1010.8
20260507142306 52 299 0.9 3.5 0.00 0.00 0.00 61 1010.7
20260507141736 53 299 0.9 3.5 0.00 0.00 0.00 62 1010.7
20260507141153 53 298 0.0 3.5 0.00 0.00 0.00 64 1010.8
20260507140834 52 298 0.9 3.5 0.00 0.00 0.00 64 1010.8
20260507140022 52 296 0.0 3.5 0.00 0.00 0.00 62 1010.8
20260507135444 51 296 0.0 0.0 0.00 0.00 0.00 63 1011.0
20260507135139 51 296 0.0 0.0 0.00 0.00 0.00 67 1010.8
20260507134333 51 296 0.0 2.6 0.00 0.00 0.00 67 1011.0
20260507133753 51 309 0.0 5.2 0.00 0.00 0.00 69 1011.0
20260507133228 50 269 0.9 4.3 0.00 0.00 0.00 70 1011.1
20260507132726 50 269 0.0 4.3 0.00 0.00 0.00 69 1011.0
20260507132156 50 262 0.0 1.7 0.00 0.00 0.00 71 1010.8
20260507131607 50 264 0.0 1.7 0.00 0.00 0.00 73 1010.8
20260507131052 49 264 0.0 1.7 0.00 0.00 0.00 74 1011.0
20260507130555 49 264 0.0 0.0 0.00 0.00 0.00 75 1010.7
20260507130008 49 264 0.0 1.7 0.00 0.00 0.00 76 1010.8
20260507125713 49 264 0.0 1.7 0.00 0.00 0.00 75 1010.8
20260507124944 48 263 0.0 4.3 0.00 0.00 0.00 74 1010.7
20260507124639 48 263 0.0 4.3 0.00 0.00 0.00 75 1010.7
20260507123851 48 180 0.0 0.0 0.00 0.00 0.00 75 1010.7
20260507123339 48 180 0.0 3.5 0.00 0.00 0.00 75 1011.0
20260507122814 47 178 0.0 3.5 0.00 0.00 0.00 75 1010.7
20260507122309 47 165 0.0 0.0 0.00 0.00 0.00 76 1010.6
20260507122235 47 165 0.0 0.0 0.00 0.00 0.00 77 1010.7
20260507121151 46 165 0.0 1.7 0.00 0.00 0.00 78 1010.6
20260507120602 46 134 0.0 2.6 0.00 0.00 0.00 78 1010.5
20260507120038 45 134 0.9 2.6 0.00 0.00 0.00 78 1010.4
20260507115538 45 134 0.9 2.6 0.00 0.00 0.00 79 1010.4
20260507115231 45 134 0.0 0.9 0.00 0.00 0.00 81 1010.4
20260507114420 44 134 0.0 1.7 0.00 0.00 0.00 82 1010.3
20260507113905 44 134 0.0 2.6 0.00 0.00 0.00 83 1010.4
20260507113615 44 134 0.0 2.6 0.00 0.00 0.00 83 1010.5
20260507112858 44 134 0.0 0.0 0.00 0.00 0.00 84 1010.4
20260507112307 43 134 0.0 0.0 0.00 0.00 0.00 84 1010.3
20260507111718 43 134 0.0 0.0 0.00 0.00 0.00 84 1010.3
20260507111129 43 134 0.0 2.6 0.00 0.00 0.00 84 1010.3
20260507110557 43 134 0.9 2.6 0.00 0.00 0.00 84 1010.0
20260507110004 43 134 0.9 2.6 0.00 0.00 0.00 85 1010.0
20260507105431 43 134 0.9 2.6 0.00 0.00 0.00 85 1009.9
20260507104901 42 134 0.9 3.5 0.00 0.00 0.00 85 1009.8
20260507104401 42 134 0.9 3.5 0.00 0.00 0.00 85 1009.8
20260507103827 42 134 0.9 3.5 0.00 0.01 0.00 86 1009.8
20260507103521 42 134 0.9 2.6 0.00 0.01 0.00 86 1009.7
20260507102753 42 134 0.9 2.6 0.00 0.01 0.00 86 1009.7
20260507102449 42 134 0.9 3.5 0.00 0.01 0.00 86 1009.7
20260507101922 42 134 1.7 3.5 0.00 0.01 0.00 86 1009.7
20260507101201 42 134 1.7 3.5 0.00 0.01 0.00 86 1009.8
20260507100630 42 134 1.7 3.5 0.00 0.01 0.00 86 1009.7
20260507100350 42 134 1.7 3.5 0.00 0.01 0.00 86 1009.7
20260507095837 42 134 1.7 3.5 0.00 0.01 0.00 86 1009.7
20260507095308 42 134 1.7 3.5 0.00 0.01 0.00 86 1009.7
20260507094537 42 134 1.7 3.5 0.00 0.02 0.00 86 1009.7
20260507094006 42 134 1.7 3.5 0.00 0.02 0.00 86 1009.7
20260507093503 42 134 1.7 4.3 0.00 0.03 0.00 86 1009.6
20260507092956 42 134 1.7 4.3 0.00 0.03 0.00 86 1009.6
20260507092720 42 134 1.7 3.5 0.00 0.04 0.00 86 1009.7
20260507091937 42 134 2.6 3.5 0.00 0.04 0.00 86 1009.7
20260507091410 42 134 2.6 3.5 0.00 0.04 0.00 86 1009.7
20260507091133 42 134 2.6 3.5 0.00 0.04 0.00 87 1009.8
20260507090827 42 134 2.6 4.3 0.00 0.04 0.00 86 1009.7
20260507085816 42 134 2.6 4.3 0.00 0.04 0.00 87 1009.8
20260507085316 42 134 2.6 3.5 0.00 0.04 0.00 87 1009.7
20260507084754 42 134 1.7 4.3 0.00 0.04 0.00 87 1009.8
20260507084226 41 134 0.9 4.3 0.00 0.05 0.00 87 1009.8
20260507083727 41 134 0.0 0.0 0.00 0.05 0.00 87 1009.8
20260507083628 41 134 0.0 0.0 0.00 0.06 0.00 87 1009.8
20260507082556 41 134 0.0 0.0 0.00 0.08 0.00 86 1009.8
20260507082037 41 134 0.0 0.0 0.00 0.08 0.00 86 1009.8
20260507081525 41 134 0.0 0.0 0.00 0.09 0.00 86 1009.9
20260507081016 41 134 0.0 0.0 0.00 0.10 0.00 86 1009.8
20260507080652 41 134 0.0 0.0 0.00 0.10 0.00 86 1009.8
20260507075853 41 134 0.0 2.6 0.00 0.11 0.00 86 1009.8
20260507075527 41 134 0.0 2.6 0.00 0.11 0.00 85 1009.9
20260507074729 42 134 0.9 3.5 0.00 0.12 0.00 85 1009.8
20260507074207 42 134 2.6 4.3 0.00 0.12 0.00 85 1009.8
20260507073710 42 134 2.6 4.3 0.00 0.13 0.00 85 1009.8
20260507073405 42 133 2.6 4.3 0.00 0.14 0.00 85 1009.9
20260507072646 42 132 2.6 4.3 0.00 0.14 0.00 85 1009.8
20260507072116 42 132 2.6 3.5 0.00 0.14 0.00 85 1009.9
20260507071536 42 132 2.6 4.3 0.00 0.14 0.00 85 1009.9
20260507071017 41 132 2.6 4.3 0.00 0.15 0.00 85 1010.0
20260507070441 41 132 2.6 4.3 0.00 0.15 0.00 86 1010.1
20260507070142 41 132 2.6 3.5 0.00 0.15 0.00 86 1010.1
20260507065425 41 131 2.6 3.5 0.00 0.15 0.00 86 1010.1
20260507064852 41 130 2.6 3.5 0.00 0.15 0.00 87 1010.2
20260507064342 41 130 2.6 3.5 0.00 0.15 0.00 87 1010.2
20260507063835 41 130 2.6 3.5 0.00 0.16 0.00 87 1010.2
20260507063308 41 130 2.6 3.5 0.00 0.16 0.00 87 1010.3
20260507062753 41 130 2.6 3.5 0.00 0.16 0.00 87 1010.3
20260507062250 41 130 2.6 3.5 0.00 0.16 0.00 87 1010.4
20260507061725 41 130 2.6 3.5 0.00 0.16 0.00 87 1010.5
20260507061223 41 130 2.6 3.5 0.00 0.17 0.00 87 1010.5
20260507060723 41 130 2.6 3.5 0.00 0.17 0.00 87 1010.5
20260507060147 42 130 2.6 3.5 0.00 0.17 0.00 86 1010.5
20260507055635 42 130 2.6 3.5 0.00 0.17 0.00 86 1010.6
20260507055123 42 130 2.6 3.5 0.00 0.17 0.00 86 1010.6
20260507054622 42 130 1.7 3.5 0.00 0.18 0.00 85 1010.6
20260507054058 42 130 1.7 3.5 0.00 0.18 0.00 85 1010.6
20260507053549 42 130 1.7 3.5 0.00 0.19 0.00 84 1010.7
20260507053050 42 130 1.7 3.5 0.00 0.19 0.00 84 1010.7
20260507052521 42 130 2.6 5.2 0.00 0.20 0.00 84 1010.8
20260507051945 42 129 2.6 5.2 0.00 0.21 0.00 84 1010.7
20260507051636 43 129 2.6 3.5 0.00 0.21 0.00 84 1011.0
20260507050909 43 78 1.7 3.5 0.00 0.22 0.00 84 1011.1
20260507050413 43 78 1.7 3.5 0.00 0.22 0.00 83 1011.2
20260507045831 43 78 1.7 3.5 0.00 0.22 0.00 83 1011.2
20260507045306 43 78 1.7 3.5 0.00 0.22 0.00 83 1011.1
20260507044803 43 77 1.7 3.5 0.00 0.22 0.00 82 1011.1
20260507044307 43 75 1.7 4.3 0.00 0.23 0.00 82 1011.1
20260507043731 43 340 1.7 3.5 0.00 0.23 0.00 82 1011.1
20260507043431 43 338 0.9 2.6 0.00 0.23 0.00 82 1011.1
20260507042903 43 338 0.0 1.7 0.00 0.23 0.00 82 1011.2
20260507042130 43 338 0.0 1.7 0.00 0.24 0.00 82 1011.2
20260507041557 43 338 0.0 0.0 0.00 0.24 0.00 82 1011.2
20260507041031 43 337 0.0 0.0 0.00 0.25 0.00 82 1011.3
20260507040509 43 337 0.0 0.0 0.00 0.26 0.00 83 1011.4